Location: ????????
(37.6846°N, 24.0673°E)
Time: 14:29:25
(UTC+00:00)

Meteor 2-4 Rocket - Pass Details

Date: 14 July 2020
Orbit: 800 x 908 km, 81.2° (Epoch: 04 August)

Event Time Altitude Azimuth Distance (km) Brightness Sun altitude
Rises 00:16:46 0° 350° (N) 3,543 7.7 -25.6°
Reaches altitude 10° 00:19:15 10° 350° (N) 2,595 6.9 -25.3°
Maximum altitude 00:25:12 85° 263° (W) 906 3.7 -24.8°
Enters shadow 00:26:30 57° 181° (S) 1,047 3.8 -24.6°
